Location: DARK SKY Beskydy - Park tmavé oblohy, www.darkskybeskydy.cz
(49.4926°N, 18.5016°E)
Time: 12:02:52
(UTC+02:00)

BlueWalker 3 - Pass Details

Date: 19 June 2024
Orbit: 480 x 491 km, 53.2° (Epoch: 23 July)

Event Time Altitude Azimuth Distance (km) Brightness Sun altitude
Rises 21:43:57 0° 217° (SW) 2,530 5.4 -6.4°
Reaches altitude 10° 21:46:14 10° 208° (SSW) 1,652 4.4 -6.7°
Maximum altitude 21:49:38 34° 142° (SE) 812 2.5 -7.1°
Drops below altitude 10° 21:53:02 10° 77° (ENE) 1,657 4.3 -7.4°
Sets 21:55:19 0° 68° (ENE) 2,538 5.3 -7.6°
